User: anonymous   Login
Location: Bois de la Silve
(44.4667°N, 6.7833°E)
Time: 16:04:39
(UTC+00:00)
Language:

USA 238 - Orbit

View from above orbital plane
View from above orbital plane
View from above satellite
View from above satellite

Ground track
Ground track

The orbit data is extracted from the following two-line orbital elements,

1 38758U 12048A   20263.83947618 0.00000000  00000-0  00000-0 0    08
2 38758  63.4276 151.1339 0133940   0.7109 359.2891 13.40808565    08
Epoch (UTC): 19 September 2020 20:08:50
Eccentricity: 0.0133940
inclination: 63.4276°
perigee height: 1006 km
apogee height: 1206 km
right ascension of ascending node: 151.1339°
argument of perigee: 0.7109°
revolutions per day: 13.40808565
mean anomaly at epoch: 359.2891°
orbit number at epoch: 0

The dashed part of the orbit path shows where the satellite is in the earth's shadow,  

DLR